Etusivu
METAR-TAF:

METAR-TAF

Lentoasemat :

Wahpeton, Pohjois-Dakota, Yhdysvallat

Leveyspiiri: 46-14-39N, Pituuspiiri: 096-36-26W, korkeus merenpinnasta: 295 m

Tämänhetkinen sää

Tämä raportti tehtiin 39 minuuttia sitten, kello 18.50 UTC
Tuuli 8 kn lännestä
Lämpötila 0°C
Kosteus 86%
Ilmanpaine 1023 hPa
Näkyvyys: 16.1 km
selkeää

METAR: KBWP 191850Z AUTO 26008KT 10SM CLR 00/M02 A3020 RMK AO1

Aika: 14:29 (19:29 UTC)


TAF: puuttuu

Säähavainnot ja -ennusteet yli 4000 lentoasemalta (METAR- ja TAF-raportit).

Käytössä olevat sääasemat on merkitty karttaan keltaisilla ja punaisilla pisteillä.

Aseta hiiri pisteen päälle nähdäksesi sääaseman nimen.

Klikkaa sitten nähdäksesi säähavainnot ja -ennusteet.

Kartan vaihtaminen: klikkaa mustalla rastilla varustettuja vihreitä pisteitä, niin voit zoomata sisään; viivalla varustettua vihreää pistettä, niin voit zoomata ulos tai vihreitä nuolia, niin pääset viereisille kartoille.


METAR-TAF: